Point Salines, Grenada

6:18 PM AST on August 20, 2017 (GMT -0400)
Point Salines International

Weather History for TGPY - September, 2014

Change the Weather History Date:

Tuesday, September 16, 2014

  Actual Average Record
Temperature  
Mean Temperature 82 °F -  
Max Temperature 88 °F 85 °F 91 °F (2010)
Min Temperature 76 °F 76 °F 75 °F (2012)
Cooling Degree Days 17    
Growing Degree Days 32 (Base 50)    
Moisture  
Dew Point 77 °F    
Average Humidity 82    
Maximum Humidity 94    
Minimum Humidity 62    
Precipitation  
Precipitation 0.00 in - - ()
Sea Level Pressure  
Sea Level Pressure 29.92 in    
Wind  
Wind Speed 8 mph ()    
Max Wind Speed 17 mph    
Max Gust Speed -    
Visibility 7.6 miles    
Events      
Averages and records for this station are not official NWS values.
T = Trace of Precipitation, MM = Missing Value Source: Averaged Metar Reports

Daily Weather History Graph

Daily Weather History Graph

Search for Another Location

Airport or City:

Trip Planner

Search our weather history database for the weather conditions in past years. The results will help you decide how hot, cold, wet, or windy it might be!

Date:

Astronomy

Sep. 16, 2014 Rise Set
Actual Time 5:56 AM AST 6:07 PM AST
Civil Twilight 5:35 AM AST 6:28 PM AST
Nautical Twilight 5:10 AM AST 6:53 PM AST
Astronomical Twilight 4:45 AM AST 7:17 PM AST
Moon No Moon Rise 12:43 PM AST (9/16)
Length of Visible Light 12h 53m
Length of Day
12h 10m
Last Quarter, 44% of the Moon is Illuminated
Sep 16
Last Quarter
Sep 24
New
Oct 1
First Quarter
Oct 8
Full
Oct 15
Last Quarter

Hourly Weather History & Observations

Time (AST) Temp. Heat Index Dew Point Humidity Pressure Visibility Wind Dir Wind Speed Gust Speed Precip Events Conditions
12:00 AM 80.6 °F 87.1 °F 77.0 °F 89% 29.95 in 6.2 mi East 5.8 mph - N/A   Partly Cloudy
1:00 AM 80.6 °F 87.1 °F 77.0 °F 89% 29.95 in 6.2 mi East 5.8 mph - N/A   Partly Cloudy
2:00 AM 80 °F - 77 °F 88% 29.93 in 12 mi East 6.9 mph - -   Widespread Dust
2:00 AM 80.6 °F 87.1 °F 77.0 °F 89% 29.92 in 6.2 mi East 6.9 mph - N/A   Partly Cloudy
3:00 AM 78.8 °F - 77.0 °F 94% 29.89 in 6.2 mi ENE 6.9 mph - N/A   Partly Cloudy
4:00 AM 78.8 °F - 75.2 °F 89% 29.89 in 6.2 mi East 5.8 mph - N/A   Partly Cloudy
5:00 AM 79 °F - 76 °F 88% 29.92 in 12 mi ESE 6.9 mph - -   Widespread Dust
5:00 AM 78.8 °F - 77.0 °F 94% 29.92 in 6.2 mi ESE 6.9 mph - N/A   Partly Cloudy
6:00 AM 78.8 °F - 77.0 °F 94% 29.92 in 6.2 mi East 6.9 mph - N/A   Scattered Clouds
7:00 AM 80.6 °F 87.1 °F 77.0 °F 89% 29.95 in 6.2 mi East 8.1 mph - N/A   Scattered Clouds
8:00 AM 83 °F - 79 °F 84% 29.96 in 6 mi East 11.5 mph - -   Widespread Dust
8:00 AM 82.4 °F 92.4 °F 78.8 °F 89% 29.95 in 6.2 mi East 11.5 mph - N/A   Scattered Clouds
9:00 AM 86.0 °F 96.9 °F 77.0 °F 74% 29.98 in 6.2 mi East 15.0 mph - N/A   Scattered Clouds
10:00 AM 87.8 °F 99.7 °F 77.0 °F 70% 29.98 in 6.2 mi East 15.0 mph - N/A   Scattered Clouds
11:00 AM 87 °F - 78 °F 70% 29.97 in 14 mi SE 13.8 mph - -   Widespread Dust
11:00 AM 87.8 °F 102.5 °F 78.8 °F 75% 29.95 in 6.2 mi SE 13.8 mph - N/A   Scattered Clouds
12:00 PM 87.8 °F 99.7 °F 77.0 °F 70% 29.95 in 6.2 mi ESE 13.8 mph - N/A   Scattered Clouds
1:00 PM 86.0 °F 96.9 °F 77.0 °F 74% 29.92 in 6.2 mi SE 13.8 mph - N/A   Scattered Clouds
2:00 PM 88 °F - 77 °F 62% 29.90 in 14 mi East 17.3 mph - -   Partly Cloudy
2:00 PM 87.8 °F 99.7 °F 77.0 °F 70% 29.89 in 6.2 mi East 17.3 mph - N/A   Scattered Clouds
3:00 PM 86.0 °F 96.9 °F 77.0 °F 74% 29.86 in 6.2 mi SE 13.8 mph - N/A   Scattered Clouds
4:00 PM 84.2 °F 94.1 °F 77.0 °F 79% 29.86 in 6.2 mi ESE 16.1 mph - N/A   Scattered Clouds
5:00 PM 84 °F - 76 °F 71% 29.87 in 14 mi East 15.0 mph - -   Widespread Dust
5:00 PM 84.2 °F 94.1 °F 77.0 °F 79% 29.86 in 6.2 mi East 15.0 mph - N/A   Partly Cloudy
6:00 PM 82.4 °F 89.5 °F 75.2 °F 79% 29.86 in 6.2 mi East 9.2 mph - N/A   Partly Cloudy
7:00 PM 80.6 °F 86.2 °F 75.2 °F 84% 29.89 in 6.2 mi East 5.8 mph - N/A   Partly Cloudy
8:00 PM 80 °F - 76 °F 84% 29.90 in 12 mi East 5.8 mph - -   Widespread Dust
8:00 PM 80.6 °F 87.1 °F 77.0 °F 89% 29.89 in 6.2 mi East 5.8 mph - N/A   Partly Cloudy
9:30 PM 80.6 °F 87.1 °F 77.0 °F 89% 29.92 in 6.2 mi ENE 4.6 mph - N/A   Partly Cloudy
10:00 PM 80.6 °F 87.1 °F 77.0 °F 89% 29.92 in 6.2 mi East 8.1 mph - N/A   Partly Cloudy
11:00 PM 81 °F - 76 °F 81% 29.92 in 12 mi East 11.5 mph - -   Widespread Dust
11:00 PM 80.6 °F 87.1 °F 77.0 °F 89% 29.92 in 6.2 mi East 11.5 mph - N/A   Partly Cloudy